Wind_Speed
13 14 14 14 14 12 12 12 12 12 12 13 13 13 13 13 13 13 14 14 14 15 15 16 17 17 17 17 18 19 19 20 21 21 22 22 23 23
14 14 13 13 13 13 12 12 12 12 12 12 13 13 12 13 13 14 14 14 15 16 16 17 17 18 18 18 19 19 20 21 22 22 22 23 24 25
14 14 14 13 13 13 12 12 13 13 13 13 13 13 13 13 14 14 14 15 16 17 17 18 18 19 19 19 20 21 21 22 23 24 24 25 26 26
13 13 13 12 12 12 12 13 13 13 13 13 13 13 13 14 14 15 15 16 17 18 18 19 19 20 20 20 21 22 23 24 25 26 26 27 27 28
13 13 13 13 13 13 13 14 14 14 14 14 13 14 14 15 15 16 16 17 19 19 19 20 20 20 20 22 23 24 25 26 27 27 28 28 29 29
12 13 13 13 13 13 13 13 14 14 14 14 15 15 16 16 17 17 18 19 19 20 20 20 21 21 22 23 24 25 26 27 28 28 29 29 29 30
13 13 13 13 13 13 13 14 14 14 15 15 16 16 17 17 18 18 19 20 20 20 21 21 23 24 24 25 26 26 27 28 29 29 29 30 30 30
13 13 13 14 14 14 15 15 16 16 16 16 17 17 17 18 18 19 20 21 21 21 22 23 24 25 26 27 27 27 28 28 29 29 30 30 31 31
14 14 14 14 15 15 16 16 16 16 17 17 18 18 18 19 19 20 21 22 22 22 23 25 26 27 28 28 28 28 28 29 30 30 31 31 32 32
14 15 15 16 17 17 17 17 17 17 18 19 20 20 21 21 21 21 21 21 22 23 25 26 28 29 29 29 28 29 30 31 31 32 32 32 32 33
16 17 17 17 18 18 18 18 19 19 20 20 20 21 22 21 21 21 22 23 24 25 26 28 29 29 30 30 31 31 32 32 33 33 33 34 35 35
18 19 18 19 19 18 19 19 20 21 21 21 21 21 22 21 22 23 24 25 26 27 28 29 29 30 30 31 32 33 33 34 35 35 35 36 37 37
19 19 19 19 19 19 19 19 20 21 21 21 22 22 22 22 23 24 26 27 27 28 28 29 29 30 30 31 32 33 34 35 36 36 37 38 39 39
19 19 19 19 19 19 19 20 21 21 22 22 23 23 23 24 25 26 27 28 28 29 29 30 30 31 31 32 33 34 35 36 37 37 38 39 41 42
20 20 19 19 18 19 20 21 21 22 23 24 24 24 25 25 26 27 28 28 29 30 30 31 32 32 32 33 33 34 35 36 37 38 39 41 42 42
19 19 19 19 19 20 21 21 22 23 24 25 25 26 27 27 27 27 28 29 30 31 32 33 33 33 33 34 35 36 37 38 39 40 42 43 44 44
19 19 19 19 20 21 22 23 23 24 25 26 27 27 27 27 27 28 29 30 31 32 34 34 35 35 36 37 38 39 40 41 42 43 43 44 45 45
19 19 20 21 22 23 23 24 25 26 26 27 27 28 27 28 29 30 31 32 33 34 35 35 35 36 37 39 40 40 41 42 44 45 44 44 44 45
20 20 21 22 23 24 24 25 26 27 27 28 28 29 29 30 31 32 33 34 34 35 36 36 36 37 38 39 40 41 42 43 44 44 44 45 45 45
22 23 23 24 24 24 25 26 27 28 29 29 30 30 30 31 32 33 33 35 35 36 37 37 38 39 39 40 41 42 43 43 44 44 44 45 46 46
23 24 24 25 26 26 27 27 28 28 29 30 31 31 32 32 33 34 34 35 37 37 38 38 39 40 40 41 42 43 44 44 44 44 44 44 45 44
24 24 25 26 27 27 28 28 28 29 30 30 31 32 32 33 33 34 35 36 37 37 38 39 39 40 40 41 42 43 44 44 44 45 45 45 45 44
25 25 26 26 27 27 28 29 29 30 31 31 31 32 33 34 35 35 35 36 37 38 39 40 40 41 41 42 43 44 44 44 44 44 44 44 44 44
Wind_Direction
277 279 280 283 286 286 286 285 287 287 290 293 291 291 291 291 293 294 295 295 298 300 298 297 298 297 295 292 290 289 289 289 288 288 287 285 284 283
277 280 282 283 284 284 284 285 288 288 290 294 293 292 291 291 291 293 296 297 298 299 301 300 298 298 297 294 293 292 292 292 292 291 290 288 285 283
275 278 281 281 282 285 286 289 290 291 291 293 295 294 293 292 291 294 297 299 300 300 301 302 301 299 297 296 294 294 294 293 293 293 292 290 288 285
277 276 277 280 283 286 287 291 293 293 290 292 296 295 294 292 292 293 297 300 302 303 303 303 302 300 298 297 297 296 296 295 295 295 294 292 291 288
272 276 276 279 280 283 285 288 291 294 295 294 297 295 293 290 290 293 297 300 302 303 303 302 302 301 299 298 297 297 297 297 296 295 295 294 293 290
276 277 275 278 284 286 287 288 291 293 296 298 297 298 296 295 295 298 299 301 303 303 303 303 301 301 301 300 299 299 298 298 298 297 297 296 294 292
278 279 277 278 284 288 289 290 293 294 294 296 298 298 297 297 297 299 301 302 303 304 303 304 304 303 303 303 303 301 300 300 299 299 299 298 296 294
277 277 277 279 280 285 291 292 292 292 293 295 298 299 299 299 299 301 303 302 304 304 304 305 306 306 306 305 303 302 302 301 301 301 300 299 298 296
276 278 281 281 283 284 287 290 290 292 294 294 298 299 299 299 299 300 301 301 302 303 304 305 306 307 306 305 304 303 304 304 302 302 302 301 299 298
274 277 282 284 284 285 285 287 288 291 294 296 298 297 298 299 300 300 301 301 302 302 303 305 306 306 305 306 305 305 305 306 305 304 303 303 302 300
275 278 282 284 286 286 283 284 288 291 294 296 297 297 299 300 300 302 303 302 303 304 305 306 306 305 304 305 305 305 305 306 305 304 304 303 302 301
274 278 281 283 286 286 283 285 288 291 293 295 298 299 300 299 299 300 301 302 302 304 305 307 306 305 304 304 304 304 304 305 304 304 304 304 303 302
273 278 281 283 284 285 285 287 290 292 293 295 297 298 299 298 298 299 301 302 304 305 306 307 307 306 306 305 304 304 304 304 304 304 304 304 303 302
274 277 280 282 282 283 285 287 290 292 294 297 298 299 299 300 300 300 301 303 304 306 306 306 307 307 307 307 306 306 305 305 305 305 305 305 304 303
276 278 279 280 281 284 287 288 290 292 294 296 297 299 300 301 301 301 302 304 305 306 307 307 308 308 308 308 308 308 307 306 307 307 307 307 306 304
277 279 279 282 283 284 287 289 291 292 294 295 296 298 300 301 302 302 304 306 307 307 307 308 308 308 308 309 309 309 309 308 308 307 307 307 306 305
278 279 282 284 286 287 289 290 292 293 295 296 297 298 299 300 302 303 305 306 307 308 308 309 309 309 309 309 310 310 309 309 310 310 309 308 307 306
280 282 285 287 288 288 289 290 292 294 295 297 299 299 298 300 302 304 305 306 308 309 308 308 308 309 309 310 310 310 310 310 310 310 310 310 309 308
280 283 286 288 289 289 290 291 293 295 296 298 298 299 299 301 302 304 305 306 307 309 309 310 310 309 309 310 310 310 310 310 310 310 310 310 310 309
281 283 285 287 289 290 291 293 294 295 296 298 298 299 299 301 303 304 306 306 307 308 309 309 310 310 310 310 311 311 311 312 311 311 311 311 311 310
281 281 283 286 289 291 292 293 294 295 297 298 298 298 300 302 304 305 306 307 308 308 309 309 310 311 311 311 312 312 313 313 313 312 311 311 312 311
279 281 283 286 288 290 291 293 295 296 297 299 299 300 302 303 304 305 307 308 309 309 309 310 312 312 312 312 313 314 314 314 314 314 313 313 313 313
279 282 283 285 287 289 291 293 295 297 298 299 300 301 302 303 305 307 307 309 309 310 310 311 312 313 313 313 314 315 315 315 316 316 315 315 316 316
Height
5843 5842 5841 5841 5840 5839 5838 5837 5837 5836 5835 5833 5832 5830 5829 5829 5829 5828 5828 5827 5826 5825 5823 5822 5821 5820 5818 5817 5816 5815 5813 5812 5811 5809 5808 5807 5806 5804
5839 5838 5838 5837 5836 5835 5835 5834 5833 5832 5831 5830 5828 5827 5826 5825 5825 5825 5824 5823 5822 5821 5820 5818 5817 5816 5814 5813 5811 5810 5808 5807 5805 5803 5802 5800 5799 5797
5835 5835 5834 5834 5833 5832 5832 5831 5830 5829 5828 5826 5825 5823 5822 5822 5821 5821 5821 5820 5819 5817 5816 5814 5813 5811 5809 5808 5806 5804 5803 5801 5799 5797 5795 5794 5792 5790
5831 5831 5831 5830 5830 5829 5828 5828 5827 5826 5825 5823 5822 5821 5820 5819 5818 5818 5817 5816 5815 5813 5811 5810 5808 5806 5804 5803 5801 5799 5797 5794 5792 5790 5788 5786 5784 5782
5828 5827 5827 5827 5826 5826 5825 5824 5823 5822 5821 5820 5819 5818 5817 5816 5815 5814 5813 5812 5810 5808 5807 5805 5803 5801 5799 5797 5795 5792 5790 5788 5785 5783 5780 5778 5775 5773
5824 5823 5823 5823 5823 5822 5821 5821 5820 5819 5818 5817 5816 5815 5813 5812 5811 5810 5808 5807 5805 5803 5801 5799 5797 5795 5793 5791 5788 5786 5783 5780 5777 5774 5772 5769 5767 5764
5820 5820 5820 5819 5819 5818 5818 5817 5816 5815 5814 5813 5812 5811 5809 5808 5807 5805 5804 5802 5800 5798 5796 5794 5792 5789 5787 5784 5781 5778 5775 5772 5769 5766 5763 5760 5758 5755
5816 5816 5816 5816 5815 5814 5814 5813 5812 5812 5811 5810 5808 5807 5805 5803 5802 5800 5798 5797 5795 5793 5790 5788 5785 5783 5780 5777 5774 5771 5768 5764 5761 5758 5755 5752 5749 5746
5812 5812 5812 5812 5811 5810 5809 5809 5808 5807 5807 5806 5804 5802 5800 5798 5797 5795 5793 5791 5789 5787 5784 5782 5779 5776 5773 5769 5766 5763 5760 5756 5753 5749 5746 5743 5740 5737
5808 5808 5808 5807 5806 5806 5805 5805 5804 5803 5802 5801 5799 5797 5795 5793 5791 5789 5787 5785 5783 5781 5778 5776 5772 5769 5765 5762 5758 5755 5752 5748 5744 5741 5737 5734 5731 5727
5804 5804 5803 5802 5802 5801 5801 5800 5799 5798 5797 5795 5794 5792 5790 5787 5785 5783 5781 5779 5777 5774 5771 5768 5765 5761 5758 5754 5750 5747 5743 5740 5736 5732 5728 5725 5721 5718
5799 5799 5798 5798 5797 5796 5795 5795 5794 5793 5792 5790 5788 5786 5784 5782 5780 5778 5775 5773 5770 5768 5764 5761 5757 5754 5750 5746 5742 5739 5735 5731 5727 5723 5719 5715 5711 5707
5794 5793 5793 5792 5791 5791 5790 5790 5789 5787 5786 5784 5783 5781 5778 5776 5774 5771 5769 5766 5763 5760 5757 5753 5750 5746 5742 5739 5734 5730 5726 5722 5718 5713 5709 5705 5701 5697
5788 5788 5787 5787 5786 5786 5785 5784 5783 5782 5780 5778 5776 5774 5772 5770 5767 5765 5762 5759 5756 5752 5749 5745 5742 5738 5734 5730 5726 5722 5717 5712 5708 5703 5699 5694 5689 5684
5783 5782 5782 5782 5781 5781 5780 5779 5777 5776 5774 5772 5770 5768 5766 5763 5760 5758 5754 5751 5748 5744 5741 5737 5733 5729 5725 5721 5717 5712 5708 5703 5698 5693 5688 5683 5678 5673
5777 5777 5777 5777 5776 5775 5774 5773 5771 5770 5768 5766 5763 5761 5759 5756 5753 5750 5747 5744 5740 5736 5732 5728 5724 5720 5716 5712 5707 5702 5697 5693 5688 5682 5677 5671 5665 5660
5772 5772 5772 5771 5770 5769 5768 5766 5765 5763 5761 5759 5757 5754 5751 5749 5746 5743 5739 5736 5732 5728 5724 5720 5715 5711 5707 5702 5698 5692 5687 5681 5676 5670 5665 5659 5652 5647
5767 5766 5766 5765 5764 5763 5762 5760 5758 5756 5754 5752 5749 5747 5744 5741 5738 5735 5731 5728 5724 5720 5715 5711 5706 5702 5697 5692 5687 5682 5676 5670 5664 5658 5652 5646 5640 5634
5761 5761 5760 5759 5758 5757 5755 5753 5751 5749 5747 5745 5742 5739 5736 5733 5730 5727 5723 5719 5715 5710 5706 5701 5696 5692 5687 5682 5677 5671 5665 5659 5652 5646 5640 5634 5628 5622
5755 5754 5753 5752 5751 5749 5748 5746 5744 5742 5739 5737 5734 5731 5728 5725 5721 5718 5714 5710 5706 5701 5696 5691 5686 5681 5676 5671 5666 5660 5653 5647 5640 5634 5628 5622 5616 5609
5748 5747 5746 5745 5744 5742 5740 5738 5736 5734 5732 5729 5726 5723 5720 5716 5713 5709 5705 5700 5696 5691 5686 5681 5676 5671 5665 5660 5654 5648 5641 5634 5628 5622 5616 5611 5604 5598
5741 5740 5739 5737 5736 5734 5732 5730 5728 5726 5723 5721 5718 5715 5711 5707 5704 5699 5695 5691 5686 5681 5676 5671 5666 5660 5655 5649 5643 5637 5630 5623 5616 5609 5602 5597 5591 5585
5733 5732 5731 5729 5728 5726 5724 5722 5720 5717 5715 5712 5709 5706 5702 5698 5694 5690 5686 5681 5676 5671 5666 5661 5655 5650 5644 5638 5632 5626 5619 5613 5606 5599 5592 5585 5579 5572